This demonstration page uses our WeatherBlox Daily Observations layout. Learn more.

Left ArrowRight Arrow

39.92423, -83.80882

Hourly Observations for January 18, 2021

Temp ( °F °C ) Dew Point ( °F °C ) Humidity (%) Winds ( mph kmh ) Pressure ( in mb ) Visibility ( mi km ) Precip ( " mm )
12:12 am 00:12 Cloudy with Light Snow 30 -1 28 -2 93 93 W 10 17 29.81 1009 9 14.48406 0.001 0.001
12:30 am 00:30 Cloudy 30 -1 28 -2 93 93 WSW 9 15 29.81 1009 9 14.48406 0.001 0.001
12:53 am 00:53 Cloudy 28 -2 27 -3 93 93 W 13 20 29.81 1010 10 16.0934 0.001 0.001
12:56 am 00:56 Cloudy 29 -1.7 27 -2.8 92 92 W 15 24 29.79 1009 10 16.0934 0.001 0.001
1:56 am 01:56 Cloudy with Light Snow 29 -1.7 27 -2.8 92 92 WSW 10 17 29.8 1009 9 14.48406 0.001 0.001
2:56 am 02:56 Cloudy 29 -1.7 27 -2.8 92 92 WSW 8 13 29.81 1010 10 16.0934 0.001 0.001
3:56 am 03:56 Cloudy 29 -1.7 28 -2.2 96 96 WSW 8 13 29.82 1010 10 16.0934 0.001 0.001
4:19 am 04:19 Cloudy with Light Snow 28 -2 28 -2 100 100 WSW 8 13 29.84 1011 8 12.87472 0.001 0.001
4:56 am 04:56 Cloudy with Light Snow 29 -1.7 28 -2.2 96 96 WSW 8 13 29.83 1010 7 11.26538 0.001 0.001
5:54 am 05:54 Cloudy with Light Snow 28 -2 28 -2 100 100 W 12 19 29.86 1011 3 4.82802 0.001 0.001
5:56 am 05:56 Cloudy with Light Snow 29 -1.7 29 -1.7 100 100 W 10 17 29.84 1011 3 4.82802 0.001 0.001
6:03 am 06:03 Cloudy with Light Snow 28 -2 28 -2 100 100 W 12 19 29.87 1012 3 4.82802 0.001 0.001
6:56 am 06:56 Cloudy with Light Snow 29 -1.7 29 -1.7 100 100 W 12 19 29.86 1011 7 11.26538 0.001 0.001
7:56 am 07:56 Cloudy with Light Snow 29 -1.7 29 -1.7 100 100 W 10 17 29.88 1012 9 14.48406 0.001 0.001
8:06 am 08:06 Cloudy with Light Snow 28 -2 28 -2 100 100 W 10 17 29.91 1013 9 14.48406 0.001 0.001
8:38 am 08:38 Cloudy with Light Snow 28 -2 28 -2 100 100 W 13 20 29.93 1014 9 14.48406 0.001 0.001
8:53 am 08:53 Cloudy with Light Snow 28 -2 28 -2 100 100 W 12 19 29.94 1014 9 14.48406 0.001 0.001
8:56 am 08:56 Cloudy with Light Snow 29 -1.7 28 -2.2 96 96 W 14 22 29.91 1013 9 14.48406 0.001 0.001
9:56 am 09:56 Cloudy with Light Snow 29 -1.7 28 -2.2 96 96 W 10 17 29.94 1014 6 9.65604 0.001 0.001
10:56 am 10:56 Cloudy with Light Snow 29 -1.7 27 -2.8 92 92 W 14 22 29.96 1015 5 8.0467 0.001 0.001
11:12 am 11:12 Cloudy with Light Snow 28 -2 27 -3 93 93 WSW 13 20 29.99 1016 9 14.48406 0.001 0.001
11:56 am 11:56 Cloudy with Light Snow 29 -1.7 24 -4.4 82 82 W 17 28 29.96 1015 9 14.48406 0.001 0.001
12:56 pm 12:56 Cloudy 29 -1.7 24 -4.4 82 82 WSW 13 20 29.96 1015 10 16.0934 0.001 0.001
1:56 pm 13:56 Cloudy 30 -1.1 25 -3.9 82 82 W 12 19 29.96 1015 10 16.0934 0 0
2:56 pm 14:56 Cloudy with Light Snow 29 -1.7 26 -3.3 89 89 WSW 12 19 29.97 1015 9 14.48406 0.001 0.001
3:56 pm 15:56 Cloudy with Light Snow 29 -1.7 26 -3.3 89 89 SW 9 15 30 1016 9 14.48406 0.001 0.001
4:56 pm 16:56 Cloudy with Light Snow 29 -1.7 27 -2.8 92 92 SW 7 11 30.02 1017 4 6.43736 0.001 0.001
5:34 pm 17:34 Cloudy with Light Snow 28 -2 28 -2 100 100 SW 10 17 30.05 1018 7 11.26538 0.001 0.001
5:56 pm 17:56 Cloudy with Light Snow 29 -1.7 28 -2.2 96 96 SW 9 15 30.04 1017 8 12.87472 0.001 0.001
6:56 pm 18:56 Cloudy with Light Snow 30 -1.1 29 -1.7 96 96 SW 12 19 30.06 1018 9 14.48406 0.001 0.001
7:37 pm 19:37 Cloudy with Light Snow 30 -1 28 -2 93 93 WSW 13 20 30.09 1019 9 14.48406 0.001 0.001
7:56 pm 19:56 Cloudy with Light Snow 31 -0.6 29 -1.7 92 92 WSW 10 17 30.07 1018 9 14.48406 0.001 0.001
8:40 pm 20:40 Cloudy 30 -1 28 -2 93 93 SW 9 15 30.1 1019 10 16.0934 0.001 0.001
8:56 pm 20:56 Cloudy 31 -0.6 29 -1.7 92 92 SW 12 19 30.08 1019 10 16.0934 0.001 0.001
9:56 pm 21:56 Cloudy 31 -0.6 29 -1.7 92 92 SW 7 11 30.09 1019 9 14.48406 0.001 0.001
10:56 pm 22:56 Cloudy 31 -0.6 29 -1.7 92 92 SSW 6 9 30.09 1019 10 16.0934 0 0
11:56 pm 23:56 Mostly Cloudy 29 -1.7 28 -2.2 96 96 SW 8 13 30.09 1019 10 16.0934 0 0

Powered by AerisWeather